Albany, VT

2:05 PM EDT on July 23, 2016 (GMT -0400)
Newport State

Weather History for KEFK - February, 2014

Change the Weather History Date:

Saturday, February 22, 2014

  Actual Average Record
Temperature  
Mean Temperature 36 °F -  
Max Temperature 43 °F 35 °F 61 °F (1981)
Min Temperature 29 °F 12 °F -18 °F (1959)
Degree Days  
Heating Degree Days 29    
Moisture  
Dew Point 18 °F    
Average Humidity 50    
Maximum Humidity 91    
Minimum Humidity 19    
Precipitation  
Precipitation 0.00 in - - ()
Sea Level Pressure  
Sea Level Pressure 29.73 in    
Wind  
Wind Speed 10 mph (SW)    
Max Wind Speed 26 mph    
Max Gust Speed 36 mph    
Visibility 10 miles    
Events      
Averages and records for this station are not official NWS values.
T = Trace of Precipitation, MM = Missing Value Source: NWS Daily Summary

Daily Weather History Graph

Daily Weather History Graph

Search for Another Location

Airport or City:

Trip Planner

Search our weather history database for the weather conditions in past years. The results will help you decide how hot, cold, wet, or windy it might be!

Date:

Astronomy

Feb. 22, 2014 Rise Set
Actual Time 6:38 AM EST 5:26 PM EST
Civil Twilight 6:08 AM EST 5:56 PM EST
Nautical Twilight 5:34 AM EST 6:30 PM EST
Astronomical Twilight 5:01 AM EST 7:04 PM EST
Moon 12:36 AM EST (2/22) 10:28 AM EST (2/22)
Length of Visible Light 11h 47m
Length of Day
10h 48m
Waning Gibbous, 50% of the Moon is Illuminated
Feb 22
Waning Gibbous
Feb 22
Last Quarter
Mar 1
New
Mar 8
First Quarter
Mar 16
Full

Hourly Weather History & Observations

Time (EST) Temp. Windchill Dew Point Humidity Pressure Visibility Wind Dir Wind Speed Gust Speed Precip Events Conditions
12:15 AM 33.3 °F 28.9 °F 30.9 °F 91% 29.73 in 10.0 mi South 4.6 mph - N/A   Overcast
12:35 AM 33.4 °F 26.6 °F 31.1 °F 91% 29.73 in 10.0 mi SSW 8.1 mph - N/A   Overcast
12:55 AM 33.4 °F 28.1 °F 31.1 °F 91% 29.73 in 10.0 mi South 5.8 mph - N/A   Mostly Cloudy
1:15 AM 32.4 °F 26.0 °F 29.8 °F 90% 29.72 in 10.0 mi SSW 6.9 mph - N/A   Clear
1:35 AM 32.0 °F 26.4 °F 28.8 °F 88% 29.73 in 10.0 mi WSW 5.8 mph - N/A   Clear
1:55 AM 32.0 °F 25.6 °F 28.9 °F 88% 29.73 in 10.0 mi SSW 6.9 mph - N/A   Scattered Clouds
2:15 AM 33.1 °F 26.1 °F 30.2 °F 89% 29.74 in 10.0 mi SSW 8.1 mph - N/A   Scattered Clouds
2:35 AM 32.9 °F 26.7 °F 29.3 °F 87% 29.73 in 10.0 mi SSW 6.9 mph - N/A   Scattered Clouds
2:55 AM 32.5 °F 27.1 °F 28.4 °F 85% 29.72 in 10.0 mi SSW 5.8 mph - N/A   Scattered Clouds
3:15 AM 32.0 °F 27.5 °F 28.0 °F 85% 29.72 in 10.0 mi SSW 4.6 mph - N/A   Clear
3:35 AM 32.0 °F - 27.9 °F 85% 29.72 in 10.0 mi Calm Calm - N/A   Clear
3:55 AM 29.8 °F - 26.1 °F 86% 29.73 in 10.0 mi Calm Calm - N/A   Clear
4:15 AM 29.8 °F 24.9 °F 26.4 °F 87% 29.73 in 10.0 mi SW 4.6 mph - N/A   Clear
4:35 AM 30.2 °F 25.4 °F 26.2 °F 85% 29.74 in 10.0 mi SSW 4.6 mph - N/A   Clear
4:55 AM 33.3 °F 25.7 °F 25.9 °F 74% 29.74 in 10.0 mi South 9.2 mph - N/A   Clear
5:15 AM 34.2 °F 27.5 °F 25.0 °F 69% 29.73 in 10.0 mi South 8.1 mph - N/A   Clear
5:35 AM 32.7 °F 25.7 °F 24.1 °F 71% 29.73 in 10.0 mi SW 8.1 mph - N/A   Clear
5:55 AM 32.4 °F 24.6 °F 25.0 °F 74% 29.74 in 10.0 mi SSW 9.2 mph - N/A   Clear
6:15 AM 30.9 °F 23.5 °F 23.9 °F 75% 29.74 in 10.0 mi SSW 8.1 mph - N/A   Clear
6:35 AM 33.1 °F 24.9 °F 23.9 °F 69% 29.74 in 10.0 mi South 10.4 mph 16.1 mph N/A   Clear
6:55 AM 33.4 °F 25.9 °F 21.9 °F 63% 29.74 in 10.0 mi South 9.2 mph - N/A   Clear
7:15 AM 33.8 °F 24.8 °F 19.8 °F 56% 29.75 in 10.0 mi SSW 12.7 mph 19.6 mph N/A   Clear
7:35 AM 34.9 °F 27.7 °F 18.0 °F 50% 29.75 in 10.0 mi South 9.2 mph 17.3 mph N/A   Clear
7:55 AM 35.1 °F 26.9 °F 20.7 °F 56% 29.76 in 10.0 mi South 11.5 mph 17.3 mph N/A   Clear
8:15 AM 35.6 °F 27.1 °F 20.1 °F 53% 29.76 in 10.0 mi South 12.7 mph 19.6 mph N/A   Clear
8:35 AM 36.1 °F 27.7 °F 19.4 °F 51% 29.76 in 10.0 mi South 12.7 mph 21.9 mph N/A   Clear
8:55 AM 37.0 °F 30.4 °F 19.2 °F 49% 29.75 in 10.0 mi South 9.2 mph 23.0 mph N/A   Clear
9:15 AM 38.1 °F 30.2 °F 18.3 °F 45% 29.74 in 10.0 mi South 12.7 mph 17.3 mph N/A   Clear
9:35 AM 39.2 °F 32.5 °F 18.5 °F 43% 29.74 in 10.0 mi South 10.4 mph 17.3 mph N/A   Clear
9:55 AM 40.1 °F 33.2 °F 18.7 °F 42% 29.74 in 10.0 mi South 11.5 mph 17.3 mph N/A   Clear
10:15 AM 41.0 °F 33.9 °F 19.6 °F 42% 29.72 in 10.0 mi South 12.7 mph 21.9 mph N/A   Scattered Clouds
10:35 AM 41.9 °F 34.6 °F 20.3 °F 42% 29.72 in 10.0 mi SSW 13.8 mph 24.2 mph N/A   Scattered Clouds
10:55 AM 42.3 °F 34.8 °F 20.7 °F 42% 29.72 in 10.0 mi SSW 15.0 mph 21.9 mph N/A   Scattered Clouds
11:15 AM 41.9 °F 33.7 °F 20.1 °F 42% 29.72 in 10.0 mi SSW 17.3 mph 23.0 mph N/A   Mostly Cloudy
11:35 AM 42.4 °F 35.3 °F 20.3 °F 41% 29.72 in 10.0 mi SSW 13.8 mph 27.6 mph N/A   Mostly Cloudy
11:55 AM 42.1 °F 34.9 °F 20.8 °F 43% 29.71 in 10.0 mi SSW 13.8 mph 21.9 mph N/A   Scattered Clouds
12:15 PM 42.4 °F 35.0 °F 20.5 °F 42% 29.69 in 10.0 mi SSW 15.0 mph 24.2 mph N/A   Scattered Clouds
12:35 PM 42.4 °F 34.4 °F 19.6 °F 40% 29.68 in 10.0 mi SSW 17.3 mph 23.0 mph N/A   Scattered Clouds
12:55 PM 42.1 °F 33.1 °F 20.8 °F 43% 29.69 in 10.0 mi SSW 20.7 mph 28.8 mph N/A   Mostly Cloudy
1:15 PM 42.4 °F 33.3 °F 20.8 °F 42% 29.68 in 10.0 mi SSW 21.9 mph 27.6 mph N/A   Mostly Cloudy
1:35 PM 42.3 °F 34.8 °F 20.5 °F 42% 29.68 in 10.0 mi SSW 15.0 mph 23.0 mph N/A   Mostly Cloudy
1:55 PM 41.9 °F 33.4 °F 21.0 °F 43% 29.68 in 10.0 mi SSW 18.4 mph 26.5 mph N/A   Overcast
2:15 PM 41.9 °F 33.1 °F 20.1 °F 42% 29.67 in 10.0 mi SSW 19.6 mph 29.9 mph N/A   Overcast
2:35 PM 41.9 °F 34.3 °F 20.1 °F 42% 29.67 in 10.0 mi SSW 15.0 mph - N/A   Overcast
2:55 PM 42.3 °F 35.5 °F 19.2 °F 40% 29.68 in 10.0 mi SW 12.7 mph 28.8 mph N/A   Overcast
3:15 PM 42.3 °F 36.3 °F 19.4 °F 40% 29.67 in 10.0 mi SW 10.4 mph 19.6 mph N/A   Overcast
3:35 PM 43.0 °F 34.0 °F 17.8 °F 36% 29.67 in 10.0 mi SW 21.9 mph 31.1 mph N/A   Mostly Cloudy
3:55 PM 43.0 °F 34.2 °F 17.4 °F 36% 29.67 in 10.0 mi SSW 20.7 mph 34.5 mph N/A   Scattered Clouds
4:15 PM 42.6 °F 32.6 °F 15.6 °F 34% 29.67 in 10.0 mi SW 26.5 mph 35.7 mph N/A   Clear
4:35 PM 42.8 °F 34.8 °F 14.5 °F 32% 29.67 in 10.0 mi SW 17.3 mph 34.5 mph N/A   Scattered Clouds
4:55 PM 42.6 °F 34.6 °F 14.0 °F 31% 29.67 in 10.0 mi SW 17.3 mph 31.1 mph N/A   Clear
5:15 PM 41.9 °F 34.0 °F 15.8 °F 35% 29.68 in 10.0 mi SW 16.1 mph 24.2 mph N/A   Clear
5:35 PM 41.2 °F 32.4 °F 15.4 °F 35% 29.69 in 10.0 mi SW 18.4 mph 26.5 mph N/A   Clear
5:55 PM 41.5 °F 31.6 °F 6.3 °F 23% 29.71 in 10.0 mi SW 24.2 mph 31.1 mph N/A   Clear
6:15 PM 41.2 °F 33.4 °F 1.9 °F 20% 29.71 in 10.0 mi WSW 15.0 mph 28.8 mph N/A   Clear
6:35 PM 40.5 °F 32.1 °F 1.8 °F 20% 29.72 in 10.0 mi SW 16.1 mph 27.6 mph N/A   Clear
6:55 PM 40.1 °F 31.0 °F 0.7 °F 19% 29.73 in 10.0 mi WSW 18.4 mph 29.9 mph N/A   Clear
7:15 PM 39.6 °F 31.3 °F 1.2 °F 20% 29.73 in 10.0 mi WSW 15.0 mph 27.6 mph N/A   Clear
7:35 PM 39.2 °F 28.0 °F 0.5 °F 20% 29.74 in 10.0 mi WSW 26.5 mph 33.4 mph N/A   Clear
7:55 PM 38.5 °F 31.6 °F 2.3 °F 22% 29.75 in 10.0 mi West 10.4 mph 23.0 mph N/A   Clear
8:15 PM 37.4 °F 29.3 °F 3.2 °F 24% 29.77 in 10.0 mi WSW 12.7 mph 18.4 mph N/A   Clear
8:35 PM 36.1 °F 28.7 °F 4.6 °F 27% 29.78 in 10.0 mi West 10.4 mph - N/A   Clear
8:55 PM 36.5 °F 27.0 °F 4.3 °F 26% 29.79 in 10.0 mi West 16.1 mph 23.0 mph N/A   Clear
9:15 PM 36.1 °F 28.2 °F 3.9 °F 26% 29.80 in 10.0 mi WSW 11.5 mph 25.3 mph N/A   Clear
9:35 PM 35.6 °F 27.5 °F 5.0 °F 28% 29.81 in 10.0 mi West 11.5 mph 24.2 mph N/A   Clear
9:55 PM 35.2 °F 27.1 °F 5.2 °F 28% 29.81 in 10.0 mi WSW 11.5 mph 21.9 mph N/A   Clear
10:15 PM 34.0 °F 26.0 °F 6.8 °F 32% 29.82 in 10.0 mi WSW 10.4 mph - N/A   Clear
10:35 PM 33.8 °F 23.2 °F 7.0 °F 33% 29.82 in 10.0 mi WSW 17.3 mph 24.2 mph N/A   Clear
10:55 PM 33.8 °F 25.3 °F 6.8 °F 32% 29.83 in 10.0 mi WSW 11.5 mph 21.9 mph N/A   Clear
11:15 PM 33.4 °F 23.5 °F 7.0 °F 33% 29.83 in 10.0 mi WSW 15.0 mph 21.9 mph N/A   Clear
11:35 PM 33.3 °F 21.5 °F 7.3 °F 34% 29.83 in 10.0 mi WSW 20.7 mph 31.1 mph N/A   Clear
11:55 PM 33.8 °F 22.8 °F 7.2 °F 33% 29.84 in 10.0 mi WSW 18.4 mph 34.5 mph N/A   Clear